When you browse on this site, cookies collect data to enhance your experience and personalize the content and advertising you see.
Visit our Privacy Policy to learn more. By continuing to use the site, you agree to this use of cookies and data.
  • In Spain
  • List of Countries
  • For 7 days
  • Water Temperature
  • Weather Map
  • Weather Widgets
  • user-avatar
    Login

    Hourly Weather Nueva Imperial

    Today, 22 January, Wednesday

    Time Temperature Precipitation Wind Pressure Humidity
    00:00 +15°C° 0 mm 1 mps 755 mmHg 80%
    01:00 +14°C° 0 mm 1 mps 755 mmHg 80%
    02:00 +14°C° 0 mm 1 mps 754 mmHg 80%
    03:00 +13°C° 0 mm 1 mps 754 mmHg 81%
    04:00 +13°C° 0 mm 1 mps 754 mmHg 82%
    05:00 +15°C° 0 mm 1 mps 754 mmHg 75%
    06:00 +18°C° 0 mm 1 mps 754 mmHg 69%
    07:00 +20°C° 0 mm 1 mps 755 mmHg 62%
    08:00 +23°C° 0 mm 1 mps 754 mmHg 54%
    09:00 +26°C° 0 mm 1 mps 754 mmHg 46%
    10:00 +29°C° 0 mm 1 mps 754 mmHg 38%
    11:00 +30°C° 0 mm 2 mps 754 mmHg 36%
    12:00 +31°C° 0 mm 3 mps 754 mmHg 35%
    13:00 +33°C° 0 mm 3 mps 753 mmHg 33%
    14:00 +31°C° 0 mm 3 mps 753 mmHg 35%
    15:00 +30°C° 0 mm 4 mps 753 mmHg 37%
    16:00 +29°C° 0 mm 4 mps 753 mmHg 39%
    17:00 +26°C° 0 mm 3 mps 753 mmHg 48%
    18:00 +22°C° 0 mm 3 mps 753 mmHg 58%
    19:00 +19°C° 0 mm 2 mps 754 mmHg 67%
    20:00 +18°C° 0 mm 2 mps 754 mmHg 74%
    21:00 +16°C° 0 mm 1 mps 754 mmHg 81%
    22:00 +14°C° 0 mm 1 mps 755 mmHg 88%
    23:00 +14°C° 0 mm 1 mps 755 mmHg 88%

    Tomorrow, 23 January, Thursday

    Time Temperature Precipitation Wind Pressure Humidity
    00:00 +14°C° 0 mm 1 mps 755 mmHg 88%
    01:00 +14°C° 0 mm 1 mps 755 mmHg 88%
    02:00 +12°C° 0 mm 0 mps 755 mmHg 89%
    03:00 +12°C° 0 mm 0 mps 756 mmHg 89%
    04:00 +12°C° 0 mm 0 mps 756 mmHg 90%
    05:00 +14°C° 0 mm 0 mps 757 mmHg 82%
    06:00 +15°C° 0 mm 0 mps 757 mmHg 74%
    07:00 +17°C° 0 mm 0 mps 757 mmHg 66%
    08:00 +22°C° 0 mm 1 mps 758 mmHg 56%
    09:00 +24°C° 0 mm 1 mps 758 mmHg 47%
    10:00 +27°C° 0 mm 2 mps 758 mmHg 38%
    11:00 +28°C° 0 mm 3 mps 758 mmHg 36%
    12:00 +29°C° 0 mm 3 mps 758 mmHg 34%
    13:00 +29°C° 0 mm 4 mps 758 mmHg 32%
    14:00 +28°C° 0 mm 4 mps 758 mmHg 36%
    15:00 +27°C° 0 mm 5 mps 758 mmHg 41%
    16:00 +25°C° 0 mm 5 mps 758 mmHg 45%
    17:00 +22°C° 0 mm 4 mps 758 mmHg 55%
    18:00 +20°C° 0 mm 3 mps 759 mmHg 65%
    19:00 +18°C° 0 mm 3 mps 759 mmHg 75%
    20:00 +16°C° 0 mm 2 mps 759 mmHg 81%
    21:00 +15°C° 0 mm 2 mps 759 mmHg 87%
    22:00 +13°C° 0 mm 1 mps 759 mmHg 93%
    23:00 +12°C° 0 mm 1 mps 759 mmHg 93%

    Day after tomorrow, 24 January, Friday

    Time Temperature Precipitation Wind Pressure Humidity
    00:00 +12°C° 0 mm 1 mps 759 mmHg 92%
    01:00 +11°C° 0 mm 1 mps 759 mmHg 92%
    02:00 +10°C° 0 mm 0 mps 759 mmHg 92%
    03:00 +10°C° 0 mm 0 mps 759 mmHg 92%
    04:00 +9°C° 0 mm 0 mps 759 mmHg 92%
    05:00 +11°C° 0 mm 0 mps 759 mmHg 82%
    06:00 +13°C° 0 mm 0 mps 759 mmHg 72%
    07:00 +15°C° 0 mm 0 mps 760 mmHg 62%
    08:00 +20°C° 0 mm 1 mps 759 mmHg 50%
    09:00 +23°C° 0 mm 2 mps 759 mmHg 38%
    10:00 +25°C° 0 mm 2 mps 759 mmHg 26%
    11:00 +26°C° 0 mm 3 mps 759 mmHg 25%
    12:00 +27°C° 0 mm 4 mps 759 mmHg 24%
    13:00 +28°C° 0 mm 4 mps 759 mmHg 24%
    14:00 +26°C° 0 mm 4 mps 759 mmHg 27%
    15:00 +25°C° 0 mm 4 mps 759 mmHg 30%
    16:00 +23°C° 0 mm 5 mps 759 mmHg 33%
    17:00 +20°C° 0 mm 4 mps 759 mmHg 43%
    18:00 +18°C° 0 mm 3 mps 760 mmHg 52%
    19:00 +16°C° 0 mm 3 mps 760 mmHg 62%
    20:00 +14°C° 0 mm 2 mps 760 mmHg 72%
    21:00 +13°C° 0 mm 2 mps 760 mmHg 81%
    22:00 +12°C° 0 mm 1 mps 760 mmHg 90%
    23:00 +11°C° 0 mm 1 mps 760 mmHg 92%

    25 January, Saturday

    Time Temperature Precipitation Wind Pressure Humidity
    00:00 +11°C° 0 mm 1 mps 760 mmHg 93%
    01:00 +10°C° 0 mm 0 mps 760 mmHg 95%
    02:00 +9°C° 0 mm 0 mps 759 mmHg 94%
    03:00 +9°C° 0 mm 0 mps 759 mmHg 94%
    04:00 +9°C° 0 mm 0 mps 759 mmHg 93%
    05:00 +12°C° 0 mm 1 mps 759 mmHg 83%
    06:00 +14°C° 0 mm 1 mps 759 mmHg 73%
    07:00 +16°C° 0 mm 1 mps 759 mmHg 63%
    08:00 +19°C° 0 mm 2 mps 759 mmHg 55%
    09:00 +21°C° 0 mm 2 mps 759 mmHg 47%
    10:00 +25°C° 0 mm 3 mps 758 mmHg 39%
    11:00 +26°C° 0 mm 3 mps 758 mmHg 38%
    12:00 +27°C° 0 mm 4 mps 758 mmHg 37%
    13:00 +28°C° 0 mm 4 mps 758 mmHg 36%
    14:00 +27°C° 0 mm 5 mps 758 mmHg 42%
    15:00 +26°C° 0 mm 5 mps 758 mmHg 48%
    16:00 +25°C° 0 mm 5 mps 758 mmHg 54%
    17:00 +22°C° 0 mm 4 mps 758 mmHg 64%
    18:00 +20°C° 0 mm 4 mps 759 mmHg 74%
    19:00 +18°C° 0 mm 3 mps 759 mmHg 83%
    20:00 +17°C° 0 mm 3 mps 759 mmHg 88%
    21:00 +17°C° 0 mm 2 mps 759 mmHg 92%
    22:00 +16°C° 0 mm 2 mps 760 mmHg 96%
    23:00 +16°C° 0 mm 1 mps 759 mmHg 96%

    26 January, Sunday

    Time Temperature Precipitation Wind Pressure Humidity
    00:00 +15°C° 0 mm 1 mps 759 mmHg 97%
    01:00 +15°C° 0 mm 1 mps 759 mmHg 97%
    02:00 +15°C° 0 mm 1 mps 759 mmHg 97%
    03:00 +15°C° 0 mm 1 mps 759 mmHg 97%
    04:00 +15°C° 0 mm 1 mps 759 mmHg 97%
    05:00 +16°C° 0 mm 1 mps 759 mmHg 93%
    06:00 +18°C° 0 mm 1 mps 759 mmHg 89%
    07:00 +19°C° 0 mm 1 mps 759 mmHg 84%
    08:00 +21°C° 0 mm 1 mps 759 mmHg 73%
    09:00 +24°C° 0 mm 2 mps 759 mmHg 62%
    10:00 +26°C° 0 mm 2 mps 759 mmHg 51%
    11:00 +27°C° 0 mm 3 mps 759 mmHg 48%
    12:00 +28°C° 0 mm 3 mps 759 mmHg 44%
    13:00 +29°C° 0 mm 4 mps 758 mmHg 40%
    14:00 +28°C° 0 mm 4 mps 758 mmHg 43%
    15:00 +27°C° 0 mm 4 mps 758 mmHg 47%
    16:00 +26°C° 0 mm 5 mps 758 mmHg 50%
    17:00 +23°C° 0 mm 4 mps 758 mmHg 57%
    18:00 +20°C° 0 mm 4 mps 759 mmHg 65%
    19:00 +18°C° 0 mm 3 mps 759 mmHg 72%
    20:00 +17°C° 0 mm 3 mps 759 mmHg 80%
    21:00 +15°C° 0 mm 2 mps 760 mmHg 87%
    22:00 +14°C° 0 mm 1 mps 760 mmHg 95%
    23:00 +13°C° 0 mm 1 mps 760 mmHg 95%

    27 January, Monday

    Time Temperature Precipitation Wind Pressure Humidity
    00:00 +13°C° 0 mm 1 mps 759 mmHg 96%
    01:00 +12°C° 0 mm 0 mps 759 mmHg 97%
    02:00 +11°C° 0 mm 0 mps 759 mmHg 97%
    03:00 +11°C° 0 mm 0 mps 759 mmHg 97%
    04:00 +10°C° 0 mm 0 mps 758 mmHg 97%
    05:00 +12°C° 0 mm 0 mps 758 mmHg 89%
    06:00 +13°C° 0 mm 0 mps 758 mmHg 81%
    07:00 +15°C° 0 mm 0 mps 758 mmHg 74%
    08:00 +20°C° 0 mm 1 mps 758 mmHg 59%
    09:00 +23°C° 0 mm 1 mps 757 mmHg 44%
    10:00 +27°C° 0 mm 2 mps 757 mmHg 29%
    11:00 +27°C° 0 mm 3 mps 757 mmHg 28%
    12:00 +28°C° 0 mm 4 mps 757 mmHg 27%
    13:00 +28°C° 0 mm 4 mps 756 mmHg 26%
    14:00 +27°C° 0 mm 4 mps 756 mmHg 29%
    15:00 +26°C° 0 mm 4 mps 756 mmHg 33%
    16:00 +23°C° 0 mm 5 mps 756 mmHg 36%
    17:00 +21°C° 0 mm 4 mps 756 mmHg 42%
    18:00 +18°C° 0 mm 3 mps 757 mmHg 49%
    19:00 +16°C° 0 mm 3 mps 757 mmHg 56%
    20:00 +15°C° 0 mm 2 mps 757 mmHg 67%
    21:00 +13°C° 0 mm 1 mps 757 mmHg 78%
    22:00 +12°C° 0 mm 1 mps 757 mmHg 89%
    23:00 +13°C° 0 mm 1 mps 757 mmHg 89%
    Show more